[[{"header":{"parameterUnit":"m.s-1","parameterCategory":2,"la1":30.2991,"la2":30.254,"lo1":-89.0895,"lo2":-89.0444,"dy":0.0017,"dx":0.0017,"nx":28,"ny":28,"refTime":"2025-06-09T09:00:00:Z","depth":"0","parameterNumber":2,"parameterNumberName":"U-component_of_CURRENTS"},"data":[0,0,0,0,0,0,0,0,0,0,0,0,0,0,0,0,0,0,0,0,0,0,0,0,0,0,0,0,0,0,0,0,0,0,0,0,0,0,0,0,0,0,0,0,0,0,0,0,0,0,0,0,0,0,0,0,0,0,0.1891,0.189,0,0.1855,0.1855,0.1855,0.1834,0.1833,0.1832,0.1831,0.1993,0.1998,0.2003,0,0,0,0,0,0,0,0,0,0,0,0,0,0.1688,0.1694,0.1892,0.189,0.1889,0.1854,0.1855,0.1856,0.1835,0.1833,0.1832,0.1831,0.1991,0.1997,0.2004,0,0,0,0,0,0,0,0,0,0,0,0,0,0.1737,0.1696,0.1892,0.1866,0.1863,0.1854,0.1855,0.1856,0.1835,0.1833,0.1832,0.183,0.1989,0.1997,0.2005,0.2086,0,0,0.2029,0.2032,0,0,0,0,0,0,0,0,0.1735,0.1746,0.1871,0.1868,0.1864,0.1838,0.1841,0.1939,0.1835,0.1857,0.1831,0.1829,0.1954,0.1964,0.1974,0.2093,0.21,0.203,0.2034,0.2038,0.204,0,0,0,0,0,0,0,0.1732,0.1746,0.1888,0.187,0.1865,0.1767,0.1776,0.1858,0.1927,0.1855,0.1851,0.183,0.1954,0.1966,0.1978,0.2102,0.2029,0.2036,0.2041,0.2044,0.2426,0.2431,0,0,0,0,0,0,0.1731,0.1745,0.1889,0.1886,0.1781,0.1773,0.1783,0.1857,0.1922,0.1925,0.1831,0.1829,0.1953,0.1968,0.1983,0.2143,0.2038,0.2045,0.205,0.2421,0.2427,0.2433,0,0,0,0,0,0,0.1729,0.1749,0.189,0.1798,0.1808,0.1779,0.1861,0.1857,0.1856,0.1899,0.1908,0.1831,0.1952,0.1972,0.2098,0.2147,0.2049,0.2056,0.2414,0.2423,0.243,0.2425,0,0,0,0,0,0,0.1725,0.1751,0.1792,0.1803,0.1813,0.19,0.1861,0.1857,0.184,0.1837,0.1903,0.1916,0.1953,0.2086,0.2105,0.2156,0.2062,0.2408,0.2418,0.2428,0.2418,0.2432,0.2444,0,0,0,0,0,0.172,0.1813,0.1798,0.1812,0.1881,0.19,0.1899,0.1873,0.1842,0.1864,0.1929,0.1914,0.2164,0.2097,0.2118,0.2172,0.2403,0.2415,0.2427,0.2413,0.2429,0.2443,0,0,0,0,0,0,0.1753,0.1818,0.1802,0.1912,0.1897,0.1892,0.1911,0.1874,0.1934,0.1947,0.1977,0.2,0.213,0.2174,0.2098,0.2324,0.2284,0.2301,0.2266,0.2282,0.2295,0.2263,0.2069,0,0,0,0,0,0.1776,0.1847,0.187,0.1931,0.1955,0.1924,0.192,0.1904,0.1945,0.1965,0.2004,0.2091,0.2202,0.2254,0.2353,0.2469,0.2427,0.2528,0.2541,0.255,0.2549,0.2534,0.2541,0.2473,0.2473,0.2472,0,0,0.1776,0.1828,0.1853,0.1934,0.1938,0.1975,0.1925,0.1945,0.1965,0.1984,0.2062,0.2135,0.2248,0.2384,0.2446,0.2419,0.2549,0.2566,0.2572,0.2565,0.2546,0.2551,0.2556,0.2481,0.248,0.2478,0,0,0.1824,0.1899,0.1973,0.1985,0.2001,0.2004,0.2008,0.2022,0.2039,0.2116,0.2155,0.2258,0.2392,0.2483,0.255,0.2701,0.2617,0.2737,0.2763,0.2749,0.2751,0.2752,0.2672,0.2667,0.2738,0.2738,0.2738,0,0.1807,0.193,0.1977,0.2044,0.2044,0.2023,0.2067,0.2098,0.2131,0.2169,0.2154,0.2364,0.2446,0.2613,0.2671,0.2721,0.2663,0.2676,0.2752,0.2753,0.2755,0.2672,0.2666,0.2739,0.2739,0.2739,0.2739,0,0.1918,0.1978,0.2028,0.2112,0.2133,0.2164,0.2203,0.2239,0.2243,0.2258,0.2396,0.2501,0.2609,0.2671,0.2717,0.2807,0.2743,0.2755,0.2678,0.2758,0.267,0.2663,0.2741,0.274,0.274,0.274,0,0,0.1952,0.2076,0.2081,0.2097,0.2166,0.2187,0.2273,0.234,0.2364,0.2436,0.2487,0.2689,0.2691,0.2771,0.2831,0.2839,0.2798,0.2793,0.2792,0.265,0.2689,0.2616,0.26,0.2788,0.2788,0.2788,0.2605,0,0.1995,0.2109,0.2169,0.2212,0.2267,0.2288,0.2347,0.2402,0.2443,0.2497,0.2619,0.2695,0.2746,0.2772,0.2805,0.2799,0.2787,0.2843,0.269,0.2685,0.2558,0.2595,0.2638,0.2477,0.2597,0.2596,0.2595,0,0.2102,0.2141,0.2226,0.2253,0.2282,0.2303,0.2367,0.2415,0.2518,0.2545,0.2641,0.2689,0.2773,0.2776,0.2771,0.2783,0.2744,0.2724,0.2716,0.2645,0.2602,0.2435,0.2459,0.2499,0.2584,0.2585,0.2586,0,0.212,0.2182,0.2239,0.2251,0.2303,0.2332,0.2351,0.2434,0.2473,0.2553,0.2551,0.2661,0.2665,0.2668,0.265,0.2678,0.2583,0.2615,0.2517,0.2507,0.2519,0.2511,0.2517,0.2601,0.2601,0.2602,0.2602,0,0.2188,0.2211,0.2233,0.2257,0.2268,0.2316,0.2347,0.2385,0.2445,0.2473,0.2553,0.2562,0.2626,0.26,0.2602,0.251,0.2533,0.2508,0.2468,0.252,0.2516,0.2532,0.2519,0.2595,0.2596,0.2598,0.2599,0,0.2244,0.227,0.2302,0.231,0.2296,0.2311,0.2313,0.2332,0.2363,0.2391,0.2402,0.245,0.2388,0.2424,0.2391,0.2401,0.2296,0.2325,0.2349,0.2316,0.2271,0.2257,0.1933,0.1897,0.217,0.2167,0.2165,0,0.2311,0.2332,0.2317,0.2305,0.2306,0.23,0.2289,0.2305,0.2306,0.2314,0.2314,0.2277,0.227,0.2178,0.2201,0.2154,0.2145,0.2135,0.2246,0.2261,0.2216,0.2035,0.2018,0.2239,0.2238,0.2236,0.2235,0,0.2362,0.2351,0.2356,0.2322,0.2295,0.2258,0.2227,0.2207,0.2218,0.2207,0.2164,0.2159,0.2113,0.2108,0.2059,0.2057,0.2067,0.2104,0.2148,0.2286,0.2062,0.2012,0.2316,0.2225,0.2226,0.2227,0.2227,0.2228,0.2377,0.2368,0.2348,0.2296,0.226,0.2181,0.2115,0.2092,0.2051,0.1995,0.2038,0.2003,0.2112,0.2071,0.2024,0.2049,0.1928,0.2089,0.2062,0.1869,0.1866,0.21,0.1957,0.1957,0.1956,0.1956,0.1956,0,0.2319,0.2305,0.2301,0.2209,0.2119,0.2122,0.2034,0.1949,0.1846,0.1896,0.1859,0.1976,0.2014,0.2071,0.2147,0.2096,0.1985,0.2046,0.1912,0.1901,0.2179,0.2233,0.2112,0.2112,0.2112,0.2112,0.2112,0.2112,0.2311,0.2247,0.2218,0.2042,0.1982,0.1825,0.1752,0.1672,0.1673,0.1655,0.1716,0.1792,0.2002,0.2149,0.2185,0.2148,0.2021,0.1845,0.1787,0.217,0.2177,0.2183,0.2238,0.212,0.212,0.1514,0.151,0.1507]},{"header":{"parameterUnit":"m.s-1","parameterCategory":2,"la1":30.2991,"la2":30.254,"lo1":-89.0895,"lo2":-89.0444,"dy":0.0017,"dx":0.0017,"nx":28,"ny":28,"refTime":"2025-06-09T09:00:00:Z","depth":"0","parameterNumber":3,"parameterNumberName":"V-component_of_CURRENTS"},"data":[0,0,0,0,0,0,0,0,0,0,0,0,0,0,0,0,0,0,0,0,0,0,0,0,0,0,0,0,0,0,0,0,0,0,0,0,0,0,0,0,0,0,0,0,0,0,0,0,0,0,0,0,0,0,0,0,0,0,0.0102,0.0104,0,0.0263,0.0265,0.0267,0.0272,0.027,0.0268,0.0266,0.0532,0.0541,0.055,0,0,0,0,0,0,0,0,0,0,0,0,0,0.0005,0.0006,0.0102,0.0104,0.0106,0.0263,0.0266,0.0268,0.0273,0.027,0.0267,0.0265,0.0529,0.0539,0.055,0,0,0,0,0,0,0,0,0,0,0,0,0,0.0096,0.0006,0.0102,0.0126,0.0129,0.0263,0.0266,0.0269,0.0273,0.027,0.0267,0.0264,0.0525,0.0538,0.0552,0.07,0,0,0.0593,0.0599,0,0,0,0,0,0,0,0,0.0091,0.01,0.0121,0.0124,0.0129,0.0243,0.0329,0.0417,0.0274,0.0221,0.0266,0.0262,0.0446,0.0466,0.0505,0.0712,0.0724,0.0595,0.0603,0.0609,0.0613,0,0,0,0,0,0,0,0.0084,0.0094,0.0168,0.0123,0.0128,0.0199,0.0207,0.0346,0.0353,0.0225,0.0225,0.0241,0.0449,0.0491,0.0511,0.0728,0.0594,0.0606,0.0615,0.062,0.1038,0.1041,0,0,0,0,0,0,0.0053,0.0087,0.0163,0.0173,0.0099,0.0202,0.0211,0.0211,0.0349,0.0366,0.0244,0.0241,0.047,0.0495,0.0521,0.071,0.0609,0.0621,0.0629,0.1035,0.1039,0.1042,0,0,0,0,0,0,0.005,0.0058,0.0156,0.0133,0.015,0.0206,0.0207,0.0216,0.0249,0.0362,0.038,0.0265,0.0468,0.0501,0.0651,0.072,0.0628,0.064,0.1032,0.1036,0.104,0.1087,0,0,0,0,0,0,0.0047,0.0056,0.0065,0.013,0.015,0.0248,0.021,0.0221,0.0263,0.0261,0.0388,0.0409,0.0468,0.0631,0.0665,0.0737,0.0651,0.1028,0.1034,0.1039,0.1082,0.1092,0.1101,0,0,0,0,0,0.0043,0.0061,0.0064,0.0075,0.0153,0.0251,0.027,0.03,0.0267,0.0311,0.0385,0.0404,0.0688,0.0646,0.0685,0.0762,0.1025,0.1032,0.1038,0.1077,0.109,0.1101,0,0,0,0,0,0,0.0028,0.0065,0.0069,0.0098,0.0175,0.025,0.03,0.0306,0.0399,0.0394,0.0468,0.05,0.0654,0.0705,0.0655,0.0894,0.0852,0.0867,0.0868,0.0881,0.0891,0.0872,0.0662,0,0,0,0,0,0.0029,0.0039,0.011,0.0134,0.0179,0.0239,0.0283,0.0304,0.0383,0.0416,0.0506,0.0602,0.072,0.079,0.0906,0.1059,0.1013,0.1124,0.1134,0.1142,0.1152,0.1113,0.1119,0.1064,0.1063,0.1063,0,0,0.0024,0.005,0.0054,0.0132,0.0194,0.0301,0.0259,0.0334,0.0421,0.0442,0.0596,0.0658,0.0769,0.0927,0.0999,0.0974,0.1132,0.115,0.1157,0.1162,0.112,0.1125,0.1129,0.1068,0.1067,0.1067,0,0,0.0061,0.0059,0.0111,0.0187,0.0282,0.0335,0.0354,0.0452,0.0494,0.0645,0.0669,0.0763,0.0961,0.1039,0.1105,0.1246,0.1187,0.1275,0.1321,0.1284,0.1287,0.1289,0.1212,0.1207,0.1277,0.1277,0.1277,0,0.0072,0.0134,0.0149,0.0253,0.0326,0.0353,0.0467,0.0541,0.0668,0.0721,0.0702,0.0933,0.102,0.1185,0.1222,0.1272,0.1206,0.1264,0.1291,0.1292,0.1293,0.1215,0.1208,0.128,0.128,0.128,0.1279,0,0.0174,0.0243,0.0291,0.0419,0.0503,0.0597,0.07,0.0784,0.0821,0.0878,0.1024,0.1111,0.1227,0.1273,0.1304,0.1378,0.1311,0.1301,0.1245,0.1301,0.1215,0.1207,0.1285,0.1284,0.1283,0.1282,0,0,0.0173,0.0328,0.0354,0.0443,0.0594,0.0676,0.0827,0.097,0.1037,0.1139,0.1225,0.1398,0.1368,0.1437,0.1459,0.1437,0.1387,0.1366,0.1362,0.1262,0.1247,0.1223,0.121,0.1349,0.1349,0.1349,0.1173,0,0.027,0.0451,0.0513,0.071,0.0826,0.0904,0.1037,0.1153,0.1219,0.131,0.1362,0.1454,0.1453,0.147,0.1461,0.1413,0.1372,0.1433,0.1234,0.1228,0.1177,0.1205,0.1208,0.1054,0.1165,0.1163,0.1162,0,0.0389,0.0485,0.0673,0.085,0.0908,0.1017,0.1186,0.1309,0.1426,0.1456,0.1517,0.1528,0.1569,0.1516,0.1442,0.1462,0.1365,0.13,0.1291,0.125,0.1191,0.1027,0.1035,0.1057,0.115,0.1151,0.1152,0,0.041,0.0615,0.0749,0.082,0.1018,0.1104,0.1207,0.1345,0.1429,0.1513,0.1519,0.1573,0.1551,0.1476,0.1369,0.1379,0.122,0.1219,0.1106,0.11,0.1062,0.1055,0.1051,0.1138,0.1138,0.1139,0.1139,0,0.0514,0.0632,0.0755,0.0844,0.0985,0.1118,0.1257,0.1353,0.1456,0.1525,0.1562,0.1568,0.1522,0.1444,0.1356,0.12,0.1204,0.1113,0.1065,0.1079,0.1076,0.1061,0.1057,0.1132,0.1134,0.1135,0.1136,0,0.0564,0.0644,0.0803,0.0968,0.1007,0.1115,0.1271,0.1358,0.143,0.15,0.1512,0.1529,0.1424,0.1359,0.1211,0.1155,0.1019,0.0968,0.0974,0.0932,0.089,0.0888,0.0729,0.0804,0.0829,0.0828,0.0826,0,0.0612,0.0691,0.0854,0.0914,0.0989,0.1125,0.1208,0.1331,0.1397,0.1465,0.1479,0.1418,0.1388,0.1182,0.1063,0.0906,0.0921,0.0808,0.0874,0.0894,0.0855,0.0811,0.0886,0.0815,0.0814,0.0813,0.0812,0,0.0682,0.0726,0.0838,0.0949,0.1033,0.1142,0.125,0.1284,0.1404,0.1428,0.143,0.1415,0.1251,0.1133,0.0949,0.0843,0.0844,0.0783,0.0808,0.0858,0.0802,0.0849,0.0897,0.0803,0.0804,0.0804,0.0805,0.0805,0.07,0.0772,0.0882,0.0994,0.1076,0.1146,0.1204,0.1284,0.135,0.1414,0.1392,0.1423,0.1312,0.1076,0.0902,0.0724,0.0738,0.0719,0.0708,0.0656,0.0769,0.0791,0.0656,0.0656,0.0656,0.0656,0.0656,0,0.0718,0.08,0.0913,0.1027,0.1098,0.1145,0.1225,0.127,0.1303,0.1433,0.145,0.1542,0.1309,0.1146,0.0867,0.0722,0.0684,0.0666,0.0642,0.0728,0.0742,0.0794,0.068,0.068,0.068,0.068,0.068,0.068,0.073,0.0824,0.0894,0.1005,0.1073,0.113,0.1158,0.1226,0.1343,0.1532,0.171,0.1841,0.1874,0.1186,0.0845,0.0745,0.0749,0.0587,0.0677,0.0722,0.0728,0.0734,0.0787,0.0674,0.0674,0.0704,0.0704,0.0704]}],[{"header":{"parameterUnit":"m.s-1","parameterCategory":2,"la1":30.2991,"la2":30.254,"lo1":-89.0895,"lo2":-89.0444,"dy":0.0017,"dx":0.0017,"nx":28,"ny":28,"refTime":"2025-06-09T09:00:00:Z","depth":"2","parameterNumber":2,"parameterNumberName":"U-component_of_CURRENTS"},"data":[0,0,0,0,0,0,0,0,0,0,0,0,0,0,0,0,0,0,0,0,0,0,0,0,0,0,0,0,0,0,0,0,0,0,0,0,0,0,0,0,0,0,0,0,0,0,0,0,0,0,0,0,0,0,0,0,0,0,0.1499,0.1501,0,0.1689,0.1692,0.1694,0.176,0.1759,0.1758,0.1757,0.1913,0.1918,0.1923,0,0,0,0,0,0,0,0,0,0,0,0,0,0.1371,0.1372,0.1499,0.1501,0.1503,0.1689,0.1692,0.1694,0.176,0.1759,0.1758,0.1757,0.1912,0.1918,0.1924,0,0,0,0,0,0,0,0,0,0,0,0,0,0.1482,0.1372,0.1498,0.1557,0.1564,0.1688,0.1692,0.1695,0.176,0.1759,0.1758,0.1756,0.191,0.1917,0.1924,0.1999,0,0,0.1947,0.1951,0,0,0,0,0,0,0,0,0.1475,0.1487,0.1546,0.1553,0.1561,0.1698,0.1704,0.1794,0.1761,0.1688,0.1757,0.1756,0.1838,0.1851,0.1893,0.2006,0.2013,0.1948,0.1953,0.1956,0.1958,0,0,0,0,0,0,0,0.1467,0.148,0.1576,0.1548,0.1558,0.1635,0.1647,0.1723,0.1769,0.1694,0.1699,0.1717,0.1842,0.1886,0.1897,0.2015,0.1948,0.1955,0.1959,0.1962,0.2342,0.2347,0,0,0,0,0,0,0.1432,0.1472,0.157,0.1582,0.1511,0.1637,0.1652,0.1657,0.1769,0.1785,0.1718,0.1719,0.1874,0.1889,0.1903,0.2065,0.1956,0.1963,0.1967,0.2336,0.2343,0.2349,0,0,0,0,0,0,0.1428,0.1438,0.1563,0.153,0.1551,0.1639,0.1646,0.1661,0.1711,0.1788,0.1802,0.1751,0.1873,0.1892,0.2019,0.2068,0.1966,0.1973,0.233,0.2339,0.2346,0.2344,0,0,0,0,0,0,0.1424,0.1436,0.146,0.1527,0.1551,0.1656,0.1647,0.1666,0.1723,0.1727,0.1821,0.1834,0.1874,0.2008,0.2027,0.2076,0.1979,0.2323,0.2334,0.2344,0.2337,0.2352,0.2364,0,0,0,0,0,0.1418,0.1477,0.1459,0.1473,0.157,0.1658,0.168,0.1739,0.1725,0.1773,0.1851,0.1831,0.2088,0.2019,0.204,0.2092,0.2318,0.2331,0.2343,0.2331,0.2349,0.2363,0,0,0,0,0,0,0.1472,0.149,0.1473,0.1541,0.159,0.1669,0.1752,0.1744,0.1843,0.1858,0.1897,0.1919,0.2051,0.2094,0.2016,0.2245,0.2203,0.222,0.2188,0.2204,0.2217,0.218,0.1985,0,0,0,0,0,0.1477,0.1513,0.1536,0.1602,0.163,0.1678,0.1728,0.1746,0.1825,0.1866,0.1918,0.2013,0.2124,0.2176,0.2276,0.2391,0.2338,0.245,0.2463,0.2473,0.2467,0.2446,0.2452,0.239,0.239,0.239,0,0,0.1504,0.154,0.155,0.1614,0.1672,0.1721,0.1709,0.1796,0.1839,0.187,0.198,0.2057,0.217,0.231,0.2372,0.2344,0.2461,0.2489,0.2496,0.2484,0.2459,0.2463,0.2467,0.2399,0.2397,0.2396,0,0,0.1599,0.1621,0.1669,0.1694,0.1764,0.1801,0.1812,0.1872,0.1916,0.2015,0.2066,0.2174,0.2316,0.2411,0.2477,0.2631,0.2532,0.2668,0.2692,0.2672,0.2673,0.2674,0.2563,0.2553,0.267,0.267,0.267,0,0.162,0.1678,0.1709,0.1756,0.1789,0.1822,0.1866,0.1931,0.2017,0.2068,0.2058,0.2285,0.2369,0.2537,0.26,0.2652,0.2581,0.2602,0.2675,0.2676,0.2676,0.2562,0.2552,0.2671,0.2671,0.2671,0.2671,0,0.1734,0.1756,0.1813,0.1855,0.1906,0.1967,0.2011,0.2082,0.2119,0.2156,0.2305,0.2415,0.2533,0.2597,0.2645,0.2732,0.2655,0.268,0.2598,0.268,0.2558,0.2546,0.2673,0.2673,0.2672,0.2672,0,0,0.1784,0.1859,0.1864,0.1871,0.1944,0.1992,0.21,0.2198,0.224,0.2337,0.2402,0.2608,0.2614,0.2694,0.2756,0.2758,0.2698,0.2713,0.2711,0.2535,0.2556,0.2477,0.2455,0.2702,0.2702,0.2702,0.2444,0,0.1843,0.1927,0.1955,0.2015,0.2051,0.2094,0.2176,0.2264,0.2329,0.2403,0.2527,0.2612,0.2666,0.2695,0.2722,0.2712,0.2678,0.276,0.2563,0.2556,0.2422,0.2446,0.2378,0.2143,0.2433,0.2431,0.243,0,0.1929,0.196,0.2036,0.206,0.208,0.212,0.2228,0.2297,0.2422,0.2457,0.2554,0.2605,0.2686,0.269,0.2658,0.2688,0.2625,0.2592,0.2582,0.2501,0.246,0.2131,0.2111,0.241,0.2412,0.2413,0.2414,0,0.1975,0.2008,0.2077,0.2079,0.2133,0.2178,0.222,0.2326,0.2378,0.2467,0.2466,0.257,0.2576,0.2557,0.2529,0.2557,0.2427,0.2457,0.2317,0.2306,0.2212,0.2194,0.2405,0.2405,0.2406,0.2406,0.2407,0,0.2038,0.2069,0.2084,0.2106,0.2142,0.2178,0.2237,0.2289,0.2358,0.2392,0.247,0.2473,0.2533,0.2496,0.2474,0.234,0.2372,0.2297,0.225,0.2211,0.2197,0.2428,0.2435,0.2397,0.2399,0.2401,0.2402,0,0.2088,0.213,0.2171,0.2185,0.2174,0.2209,0.2216,0.2244,0.2283,0.2314,0.2329,0.2369,0.2295,0.2319,0.2253,0.2222,0.214,0.2089,0.1999,0.1949,0.2023,0.2034,0.1861,0.1856,0.1852,0.1849,0.1846,0,0.2144,0.2163,0.2183,0.2201,0.2203,0.2214,0.2212,0.2231,0.223,0.2237,0.2234,0.2194,0.2177,0.2032,0.2006,0.1903,0.1992,0.172,0.1816,0.2003,0.1974,0.1991,0.2007,0.1651,0.1646,0.1643,0.164,0,0.2168,0.2188,0.2214,0.2212,0.2216,0.2183,0.2155,0.2136,0.2148,0.2132,0.2081,0.2071,0.1979,0.1873,0.1759,0.1699,0.1745,0.1644,0.1856,0.183,0.1794,0.177,0.1794,0.1611,0.1614,0.1616,0.1617,0.1619,0.2189,0.2186,0.2205,0.2193,0.2187,0.2111,0.2049,0.1997,0.1951,0.1842,0.1912,0.1799,0.1798,0.159,0.1506,0.1426,0.1544,0.1464,0.1478,0.1496,0.1549,0.1513,0.1278,0.1279,0.128,0.1281,0.1282,0,0.2109,0.2114,0.2147,0.2117,0.2042,0.2057,0.1966,0.1838,0.1694,0.1668,0.1593,0.1427,0.1367,0.1351,0.1234,0.119,0.1224,0.1095,0.1178,0.1209,0.1236,0.1281,0.0935,0.0934,0.0932,0.0931,0,0,0.2103,0.2063,0.2049,0.1932,0.19,0.1705,0.1629,0.147,0.1395,0.1236,0.118,0.1229,0.1329,0.1114,0.1093,0.1011,0.109,0.095,0.1241,0.1374,0.1399,0.147,0.1576,0,0,0,0,0]},{"header":{"parameterUnit":"m.s-1","parameterCategory":2,"la1":30.2991,"la2":30.254,"lo1":-89.0895,"lo2":-89.0444,"dy":0.0017,"dx":0.0017,"nx":28,"ny":28,"refTime":"2025-06-09T09:00:00:Z","depth":"2","parameterNumber":3,"parameterNumberName":"V-component_of_CURRENTS"},"data":[0,0,0,0,0,0,0,0,0,0,0,0,0,0,0,0,0,0,0,0,0,0,0,0,0,0,0,0,0,0,0,0,0,0,0,0,0,0,0,0,0,0,0,0,0,0,0,0,0,0,0,0,0,0,0,0,0,0,-0.0084,-0.0081,0,0.0171,0.0174,0.0176,0.0212,0.021,0.0207,0.0206,0.0461,0.047,0.0478,0,0,0,0,0,0,0,0,0,0,0,0,0,-0.0149,-0.0151,-0.0084,-0.008,-0.0077,0.0171,0.0174,0.0177,0.0212,0.0209,0.0207,0.0205,0.0458,0.0469,0.0479,0,0,0,0,0,0,0,0,0,0,0,0,0,-0.0035,-0.0152,-0.0085,-0.0027,-0.0019,0.017,0.0174,0.0178,0.0213,0.0209,0.0206,0.0203,0.0455,0.0468,0.0481,0.0624,0,0,0.0521,0.0526,0,0,0,0,0,0,0,0,-0.0042,-0.0033,-0.0039,-0.0031,-0.0021,0.0159,0.0245,0.0328,0.0213,0.0121,0.0205,0.0202,0.0365,0.0385,0.0435,0.0636,0.0647,0.0522,0.053,0.0535,0.0539,0,0,0,0,0,0,0,-0.005,-0.0041,0.0014,-0.0035,-0.0024,0.0121,0.0129,0.0263,0.0255,0.0129,0.0133,0.0168,0.0369,0.0423,0.0442,0.0651,0.0522,0.0533,0.0541,0.0546,0.0954,0.0957,0,0,0,0,0,0,-0.0092,-0.0051,0.0006,0.0022,-0.0035,0.0123,0.0133,0.0102,0.0253,0.0275,0.017,0.0168,0.0402,0.0426,0.0451,0.0638,0.0535,0.0548,0.0555,0.0951,0.0955,0.0958,0,0,0,0,0,0,-0.0096,-0.0092,-0.0005,-0.0001,0.002,0.0124,0.0092,0.0108,0.0159,0.0285,0.0305,0.0202,0.04,0.0432,0.0579,0.0647,0.0554,0.0565,0.0948,0.0953,0.0957,0.1008,0,0,0,0,0,0,-0.01,-0.0097,-0.0099,-0.0007,0.0018,0.0121,0.0096,0.0116,0.0187,0.0187,0.0321,0.0341,0.04,0.0559,0.0592,0.0664,0.0576,0.0944,0.095,0.0955,0.1002,0.1013,0.1023,0,0,0,0,0,-0.0104,-0.0104,-0.0103,-0.0092,-0.0004,0.0124,0.0153,0.0217,0.0191,0.0243,0.032,0.0337,0.0616,0.0574,0.0612,0.0688,0.0941,0.0948,0.0955,0.0998,0.1011,0.1023,0,0,0,0,0,0,-0.0116,-0.0097,-0.0094,-0.0087,0.0018,0.0131,0.0205,0.0225,0.0329,0.0325,0.0401,0.0431,0.0583,0.0631,0.0581,0.0817,0.0774,0.0788,0.0793,0.0807,0.0817,0.0794,0.0587,0,0,0,0,0,-0.0125,-0.0133,-0.0059,-0.0036,0.0011,0.0105,0.0172,0.0208,0.0303,0.0343,0.0436,0.0533,0.0648,0.0716,0.083,0.098,0.0929,0.1044,0.1054,0.1062,0.1068,0.103,0.1036,0.098,0.098,0.098,0,0,-0.0118,-0.0102,-0.0104,-0.0036,0.0048,0.0161,0.0137,0.024,0.0337,0.0362,0.0526,0.0589,0.0696,0.0853,0.0924,0.0899,0.1048,0.1071,0.1077,0.1079,0.1038,0.1042,0.1046,0.0985,0.0984,0.0983,0,0,-0.0065,-0.0094,-0.0056,0.0025,0.0143,0.0212,0.0235,0.0355,0.0408,0.0567,0.0596,0.069,0.0888,0.0965,0.1029,0.117,0.1105,0.1199,0.1244,0.1207,0.121,0.1212,0.1121,0.1115,0.1202,0.1202,0.1202,0,-0.0039,-0.0008,-0.0003,0.0088,0.0175,0.023,0.0344,0.0431,0.0584,0.0642,0.0624,0.0859,0.0945,0.1106,0.1147,0.1196,0.1126,0.1186,0.1215,0.1216,0.1217,0.1124,0.1116,0.1205,0.1205,0.1204,0.1204,0,0.006,0.011,0.0158,0.0264,0.036,0.0467,0.0575,0.0675,0.0727,0.0795,0.0943,0.103,0.1149,0.1194,0.1226,0.13,0.1229,0.1226,0.1168,0.1224,0.1124,0.1114,0.121,0.1209,0.1208,0.1207,0,0,0.0066,0.0195,0.022,0.0302,0.0451,0.0545,0.0705,0.0865,0.094,0.1052,0.1144,0.1315,0.1288,0.1354,0.1378,0.1354,0.1301,0.1288,0.1284,0.117,0.1153,0.1121,0.1106,0.1275,0.1274,0.1274,0.1066,0,0.0169,0.0334,0.0377,0.0578,0.0685,0.0772,0.0915,0.1046,0.1123,0.1224,0.1275,0.1369,0.1369,0.1389,0.1379,0.1332,0.1283,0.1354,0.1141,0.1134,0.1077,0.1099,0.1039,0.0851,0.1056,0.1054,0.1053,0,0.0275,0.0367,0.055,0.072,0.0774,0.089,0.1077,0.1209,0.1337,0.1371,0.1431,0.1443,0.1483,0.1432,0.1349,0.1377,0.1274,0.1204,0.1194,0.1144,0.1087,0.0839,0.0825,0.1036,0.1038,0.1039,0.104,0,0.0308,0.0498,0.0637,0.0703,0.09,0.0991,0.1105,0.1252,0.1342,0.143,0.1437,0.1487,0.1467,0.1385,0.1278,0.1287,0.1116,0.1115,0.0981,0.0974,0.0877,0.0864,0.102,0.1021,0.1021,0.1022,0.1022,0,0.0404,0.0526,0.0652,0.0739,0.0892,0.1015,0.1165,0.1269,0.1377,0.1447,0.1482,0.1485,0.1439,0.1358,0.1261,0.1088,0.1099,0.0983,0.0932,0.0893,0.0885,0.1025,0.1028,0.1014,0.1016,0.1017,0.1018,0,0.0442,0.0536,0.0703,0.0875,0.0915,0.1033,0.1189,0.1282,0.1356,0.1428,0.1443,0.1454,0.1345,0.1274,0.1116,0.1039,0.0902,0.083,0.0768,0.0718,0.0774,0.0783,0.0653,0.0651,0.0649,0.0647,0.0645,0,0.0479,0.0558,0.0749,0.0832,0.0908,0.1053,0.1141,0.1265,0.1329,0.1396,0.1408,0.1346,0.1306,0.1076,0.0933,0.075,0.0798,0.057,0.0625,0.0779,0.0742,0.0755,0.0766,0.048,0.0477,0.0475,0.0473,0,0.0533,0.0599,0.0728,0.0863,0.0968,0.1079,0.1189,0.1224,0.1343,0.1363,0.1359,0.1336,0.1145,0.0959,0.0743,0.0622,0.0616,0.0519,0.0675,0.0617,0.0609,0.0576,0.0593,0.0453,0.0455,0.0457,0.0458,0.0458,0.056,0.0639,0.078,0.0915,0.1018,0.109,0.1149,0.1209,0.1269,0.1279,0.1278,0.1211,0.1057,0.0755,0.057,0.0402,0.0454,0.0382,0.0391,0.0402,0.0454,0.0448,0.0265,0.0266,0.0267,0.0268,0.0268,0,0.0583,0.0675,0.0808,0.0963,0.1042,0.1094,0.1172,0.1183,0.1187,0.1207,0.1181,0.0985,0.0791,0.0653,0.0371,0.0218,0.0219,0.017,0.0207,0.0226,0.0243,0.0291,0.0056,0.0056,0.0055,0.0055,0,0,0.0608,0.0726,0.0796,0.0938,0.1018,0.1052,0.1077,0.1076,0.1097,0.1061,0.1036,0.0982,0.0841,0.0589,0.0372,0.0224,0.0265,0.0182,0.0358,0.0443,0.0462,0.0359,0.0453,0,0,0,0,0]}],[{"header":{"parameterUnit":"m.s-1","parameterCategory":2,"la1":30.2991,"la2":30.254,"lo1":-89.0895,"lo2":-89.0444,"dy":0.0017,"dx":0.0017,"nx":28,"ny":28,"refTime":"2025-06-09T09:00:00:Z","depth":"4","parameterNumber":2,"parameterNumberName":"U-component_of_CURRENTS"},"data":[0,0,0,0,0,0,0,0,0,0,0,0,0,0,0,0,0,0,0,0,0,0,0,0,0,0,0,0,0,0,0,0,0,0,0,0,0,0,0,0,0,0,0,0,0,0,0,0,0,0,0,0,0,0,0,0,0,0,-0.0634,-0.0634,0,-0.0397,-0.0392,-0.0386,-0.0316,-0.0321,-0.0325,-0.0329,0.0127,0.0143,0.0158,0,0,0,0,0,0,0,0,0,0,0,0,0,-0.0365,-0.0372,-0.0634,-0.0634,-0.0634,-0.0398,-0.0391,-0.0385,-0.0316,-0.0321,-0.0326,-0.0331,0.0122,0.0141,0.016,0,0,0,0,0,0,0,0,0,0,0,0,0,-0.0311,-0.0374,-0.0634,-0.0594,-0.0591,-0.0399,-0.0391,-0.0383,-0.0315,-0.0321,-0.0327,-0.0333,0.0115,0.0139,0.0163,0.0436,0,0,0.0236,0.0246,0,0,0,0,0,0,0,0,-0.0315,-0.0318,-0.06,-0.0597,-0.0593,-0.0421,-0.0131,-0.011,-0.0313,-0.0385,-0.0329,-0.0336,-0.0052,-0.0015,0.0086,0.0457,0.0477,0.0238,0.0253,0.0263,0.027,0,0,0,0,0,0,0,-0.032,-0.0324,-0.0507,-0.06,-0.0596,-0.0364,-0.0366,-0.0122,-0.0158,-0.038,-0.0382,-0.0404,-0.0045,0.0063,0.0097,0.0483,0.0237,0.0259,0.0274,0.0283,0.0771,0.077,0,0,0,0,0,0,-0.0443,-0.0332,-0.0516,-0.0504,-0.0503,-0.0369,-0.0369,-0.0443,-0.0165,-0.014,-0.04,-0.0403,0.0025,0.0069,0.0114,0.0234,0.0263,0.0285,0.0299,0.0773,0.0771,0.0769,0,0,0,0,0,0,-0.0438,-0.0463,-0.0526,-0.0432,-0.0429,-0.0376,-0.0453,-0.0436,-0.0283,-0.0189,-0.0154,-0.0267,0.0022,0.008,0.027,0.0259,0.0296,0.0318,0.0774,0.0772,0.077,0.0616,0,0,0,0,0,0,-0.0432,-0.0463,-0.0545,-0.0445,-0.0441,-0.0411,-0.045,-0.0428,-0.0308,-0.0306,-0.0061,-0.003,0.0021,0.0233,0.0294,0.0293,0.0337,0.0776,0.0773,0.0771,0.0623,0.0609,0.0597,0,0,0,0,0,-0.0424,-0.0526,-0.0551,-0.0574,-0.0563,-0.0411,-0.0379,-0.0336,-0.0295,-0.0213,-0.0117,-0.0035,0.0254,0.0256,0.0327,0.0331,0.0777,0.0774,0.0771,0.0629,0.0612,0.0597,0,0,0,0,0,0,-0.0489,-0.0528,-0.0554,-0.068,-0.0559,-0.0413,-0.0413,-0.0267,-0.01,-0.0129,0.003,0.0071,0.0183,0.0318,0.0315,0.0447,0.0504,0.0515,0.0371,0.0357,0.0344,0.0293,0.0357,0,0,0,0,0,-0.0543,-0.0606,-0.0559,-0.0639,-0.0635,-0.0472,-0.0403,-0.032,-0.0185,-0.0113,0.0086,0.0199,0.0236,0.0343,0.0431,0.0632,0.0675,0.0649,0.0636,0.0624,0.0622,0.0572,0.0552,0.0759,0.0759,0.0759,0,0,-0.0587,-0.0625,-0.0662,-0.0649,-0.0601,-0.0488,-0.0439,-0.0341,-0.0216,-0.0082,0.0152,0.0197,0.0267,0.0349,0.042,0.0475,0.0607,0.062,0.061,0.0614,0.0566,0.0546,0.0527,0.0756,0.0757,0.0757,0,0,-0.0641,-0.0761,-0.0795,-0.069,-0.0621,-0.0505,-0.0447,-0.0227,-0.0159,0.0094,0.0079,0.0111,0.0427,0.035,0.036,0.0378,0.0505,0.044,0.0401,0.035,0.0332,0.0317,0.0419,0.0414,0.0472,0.0472,0.0472,0,-0.0652,-0.0756,-0.0752,-0.0704,-0.0667,-0.0493,-0.0423,-0.0276,0.0029,0.0072,0.0129,0.0293,0.0373,0.0293,0.0247,0.0343,0.0408,0.0451,0.0329,0.0314,0.0301,0.0409,0.0405,0.0464,0.0465,0.0466,0.0467,0,-0.0667,-0.0733,-0.0749,-0.066,-0.0573,-0.0491,-0.0347,-0.0165,-0.0021,0.0121,0.0146,0.0177,0.0262,0.0248,0.0281,0.0191,0.0304,0.0279,0.036,0.027,0.0392,0.0391,0.0453,0.0456,0.0458,0.046,0,0,-0.0714,-0.0746,-0.0755,-0.0726,-0.0562,-0.046,-0.033,-0.0179,-0.0061,0.0105,0.0136,0.0118,0.0145,0.0146,0.0123,0.0079,0.0054,0.0176,0.0177,0.0267,0.0082,0.0055,0.0053,0.0021,0.0018,0.0016,0.0233,0,-0.0709,-0.0697,-0.0699,-0.0586,-0.0568,-0.0419,-0.0298,-0.0127,0.0034,0.016,0.0022,0.0069,0.0094,0.0085,0.0028,0.0107,0.0034,0.0007,0.0168,0.0175,0.0146,0.0039,0.0006,0.0232,0.0232,0.0232,0.0232,0,-0.0707,-0.0724,-0.07,-0.0627,-0.0613,-0.0413,-0.0233,-0.0091,0.0044,0.0118,0.0103,0.0067,0.0029,-0.003,0.0043,0.0063,0.0037,0.0035,0.0043,0.0061,0.0138,0.0326,0.023,0.023,0.023,0.023,0.0231,0,-0.075,-0.0708,-0.0721,-0.0665,-0.0525,-0.0414,-0.0245,-0.004,0.0064,0.0124,0.0197,0.0112,0.0146,0.0074,0.0109,0.0129,0.0126,0.0162,0.0059,0.0068,0.0104,0.0117,-0.0009,-0.001,-0.001,-0.0011,-0.0011,0,-0.0714,-0.0721,-0.0678,-0.0638,-0.0526,-0.0396,-0.0205,-0.0031,0.0133,0.0224,0.0201,0.0185,0.017,0.0145,0.011,0.0153,0.0156,0.0037,0.007,0.0052,0.0056,0.0109,0.012,-0.0002,-0.0004,-0.0006,-0.0007,0,-0.0706,-0.0728,-0.0721,-0.0613,-0.0533,-0.0391,-0.0089,0.0091,0.0253,0.0356,0.0342,0.0392,0.0453,0.0353,0.03,0.0256,0.0183,0.0076,0.0145,0.0183,0.0201,0.0202,0.0188,0.0188,0.0188,0.0187,0.0187,0,-0.0688,-0.0712,-0.0698,-0.0607,-0.0488,-0.0274,-0.009,0.0146,0.029,0.0447,0.0449,0.0508,0.047,0.049,0.0365,0.0291,0.0147,0.0163,0.008,0.0162,0.0198,0.0199,0.02,0.0187,0.0187,0.0187,0.0187,0,-0.0665,-0.0709,-0.0696,-0.0567,-0.0346,-0.0187,0.0084,0.0179,0.037,0.0468,0.0558,0.0517,0.0541,0.0507,0.0382,0.0264,0.0245,0.0161,0.0162,0.0086,0.0161,0.0196,0.0198,0.0186,0.0186,0.0186,0.0186,0,-0.0658,-0.0635,-0.0643,-0.0461,-0.0284,-0.008,0.0034,0.0226,0.0361,0.0513,0.0506,0.0529,0.0557,0.048,0.0349,0.0287,0.0301,0.0255,0.0252,0.0252,0.0137,0.0233,0.0291,0,0,0,0,0,-0.0594,-0.0557,-0.0475,-0.0322,-0.0163,-0.0023,0.0144,0.0229,0.0326,0.0414,0.0489,0.0451,0.0436,0.0414,0.0362,0.0333,0.0256,0.0263,0.0193,0.0181,0.0182,0.002,0,0,0,0,0,0,-0.0546,-0.0532,-0.0493,-0.0252,-0.0084,0.0124,0.0246,0.0329,0.0325,0.0398,0.038,0.0426,0.0382,0.0492,0.037,0.0353,0.0293,0.0262,0.026,0.018,0.0181,0.0182,0.0016,0,0,0,0,0]},{"header":{"parameterUnit":"m.s-1","parameterCategory":2,"la1":30.2991,"la2":30.254,"lo1":-89.0895,"lo2":-89.0444,"dy":0.0017,"dx":0.0017,"nx":28,"ny":28,"refTime":"2025-06-09T09:00:00:Z","depth":"4","parameterNumber":3,"parameterNumberName":"V-component_of_CURRENTS"},"data":[0,0,0,0,0,0,0,0,0,0,0,0,0,0,0,0,0,0,0,0,0,0,0,0,0,0,0,0,0,0,0,0,0,0,0,0,0,0,0,0,0,0,0,0,0,0,0,0,0,0,0,0,0,0,0,0,0,0,-0.0032,-0.0033,0,-0.0178,-0.0181,-0.0183,-0.03,-0.03,-0.0301,-0.0301,-0.0189,-0.0186,-0.0183,0,0,0,0,0,0,0,0,0,0,0,0,0,-0.0046,-0.0045,-0.0032,-0.0033,-0.0034,-0.0178,-0.0181,-0.0184,-0.03,-0.03,-0.0301,-0.0301,-0.0191,-0.0187,-0.0183,0,0,0,0,0,0,0,0,0,0,0,0,0,-0.0108,-0.0045,-0.0032,-0.0104,-0.0111,-0.0178,-0.0181,-0.0184,-0.03,-0.03,-0.0301,-0.0302,-0.0192,-0.0187,-0.0182,-0.0137,0,0,-0.0166,-0.0164,0,0,0,0,0,0,0,0,-0.0104,-0.0108,-0.0092,-0.0099,-0.0107,-0.0215,-0.0145,-0.0153,-0.0299,-0.0236,-0.0301,-0.0302,-0.0168,-0.0165,-0.0206,-0.0131,-0.0127,-0.0166,-0.0163,-0.0161,-0.0159,0,0,0,0,0,0,0,-0.0099,-0.0104,-0.0098,-0.0093,-0.0102,-0.0194,-0.0203,-0.015,-0.0198,-0.0242,-0.0249,-0.0252,-0.0172,-0.0211,-0.0203,-0.0125,-0.0166,-0.0162,-0.0158,-0.0156,-0.0043,-0.0043,0,0,0,0,0,0,-0.0054,-0.0098,-0.0093,-0.0102,-0.0099,-0.0192,-0.0202,-0.0186,-0.0204,-0.0208,-0.0252,-0.0257,-0.022,-0.0209,-0.0199,-0.0195,-0.0161,-0.0156,-0.0153,-0.0043,-0.0043,-0.0043,0,0,0,0,0,0,-0.0054,-0.0052,-0.0087,-0.0099,-0.0109,-0.0189,-0.0171,-0.0188,-0.0239,-0.0213,-0.0214,-0.0285,-0.022,-0.0206,-0.0193,-0.0188,-0.0154,-0.0149,-0.0043,-0.0043,-0.0043,-0.0151,0,0,0,0,0,0,-0.0053,-0.005,-0.0028,-0.0094,-0.0106,-0.0135,-0.017,-0.019,-0.0235,-0.0245,-0.024,-0.0231,-0.0219,-0.0202,-0.0188,-0.0181,-0.0145,-0.0043,-0.0043,-0.0043,-0.0148,-0.0155,-0.0161,0,0,0,0,0,-0.0053,-0.0022,-0.0026,-0.0025,-0.007,-0.0134,-0.0151,-0.0217,-0.0236,-0.0265,-0.0278,-0.0232,-0.0191,-0.0199,-0.0183,-0.0173,-0.0043,-0.0043,-0.0043,-0.0145,-0.0154,-0.0161,0,0,0,0,0,0,-0.0018,-0.0032,-0.0038,-0.0011,-0.0067,-0.0151,-0.0169,-0.0216,-0.0257,-0.026,-0.0244,-0.0237,-0.0216,-0.0176,-0.0185,-0.0138,-0.0102,-0.0099,-0.0185,-0.0192,-0.0199,-0.0185,-0.0141,0,0,0,0,0,0.0009,0.0015,-0.0018,-0.001,-0.0017,-0.0093,-0.0125,-0.018,-0.022,-0.0245,-0.0223,-0.0205,-0.0202,-0.0187,-0.0156,-0.0133,-0.0076,-0.011,-0.0117,-0.0123,-0.01,-0.0029,-0.0028,-0.0043,-0.0043,-0.0043,0,0,0.0018,0.0012,0.0015,-0.0005,-0.0044,-0.0072,-0.0117,-0.0172,-0.0209,-0.0211,-0.0217,-0.0215,-0.0199,-0.0195,-0.0178,-0.0164,-0.0097,-0.0123,-0.013,-0.0101,-0.0029,-0.0027,-0.0026,-0.0043,-0.0043,-0.0043,0,0,0.0017,0.0049,0.0046,0.001,-0.0039,-0.0071,-0.008,-0.0141,-0.0176,-0.0194,-0.0214,-0.0227,-0.0176,-0.0202,-0.0204,-0.0217,-0.0131,-0.0186,-0.0215,-0.0149,-0.0147,-0.0144,-0.011,-0.0103,-0.0196,-0.0196,-0.0196,0,0.001,0.0026,0.0025,0.0004,-0.0028,-0.006,-0.0097,-0.0126,-0.0182,-0.0197,-0.0189,-0.0211,-0.0183,-0.0244,-0.0251,-0.0232,-0.018,-0.0198,-0.0159,-0.0155,-0.015,-0.0114,-0.0106,-0.0201,-0.0201,-0.02,-0.02,0,-0.0002,0.0004,0.0,-0.002,-0.0051,-0.0092,-0.0117,-0.0119,-0.0131,-0.0173,-0.0211,-0.0235,-0.0244,-0.0251,-0.0249,-0.0234,-0.0205,-0.0176,-0.0144,-0.0156,-0.0117,-0.0106,-0.0209,-0.0207,-0.0205,-0.0204,0,0,-0.0015,-0.0016,-0.0018,-0.0036,-0.0077,-0.0107,-0.0111,-0.0147,-0.0136,-0.0195,-0.0234,-0.0268,-0.0284,-0.0287,-0.0317,-0.0278,-0.0215,-0.0205,-0.0199,-0.018,-0.0074,-0.0188,-0.0186,-0.017,-0.0168,-0.0166,-0.0076,0,-0.0045,-0.0082,-0.0073,-0.011,-0.0128,-0.0136,-0.0136,-0.0169,-0.0157,-0.0169,-0.0263,-0.0281,-0.0304,-0.0316,-0.0295,-0.0192,-0.0182,-0.0242,-0.0054,-0.0048,-0.0156,-0.0176,-0.0159,-0.0067,-0.0064,-0.0062,-0.0061,0,-0.0061,-0.0085,-0.0123,-0.0147,-0.0151,-0.014,-0.0123,-0.0129,-0.014,-0.0143,-0.0207,-0.0266,-0.0283,-0.0286,-0.0176,-0.02,-0.0141,-0.0093,-0.0087,-0.0136,-0.0141,-0.0038,-0.004,-0.0041,-0.0043,-0.0044,-0.0045,0,-0.0081,-0.0117,-0.0144,-0.0162,-0.0177,-0.0148,-0.0117,-0.0095,-0.0073,-0.0094,-0.009,-0.0172,-0.0153,-0.0114,-0.0072,-0.0067,0.0054,0.0078,-0.0016,-0.0023,0.0102,0.01,0.0131,0.0131,0.0131,0.0131,0.013,0,-0.0114,-0.0134,-0.0123,-0.0134,-0.0123,-0.0119,-0.0069,-0.0025,0.0013,0.0013,-0.0053,-0.0105,-0.008,-0.0077,-0.0049,-0.0009,0.0075,-0.0017,-0.0004,0.0048,0.0038,0.0108,0.0104,0.0134,0.0133,0.0133,0.0132,0,-0.0124,-0.0132,-0.0157,-0.0146,-0.0118,-0.0085,0.0002,0.0059,0.0115,0.0122,0.0102,0.0057,0.0072,0.0016,0.0104,0.0063,0.0081,0.0044,0.0067,0.008,-0.0041,-0.0051,0.0017,0.0014,0.0011,0.0009,0.0007,0,-0.0137,-0.0146,-0.0142,-0.0109,-0.007,-0.0013,0.005,0.0119,0.0141,0.0172,0.0138,0.0143,0.0062,0.0107,0.0061,0.0043,0.0007,0.002,0.0006,-0.0057,-0.005,-0.0056,-0.0063,0.0003,0.0002,0.0001,0.0,0,-0.0156,-0.0143,-0.015,-0.0065,0.0017,0.0041,0.0115,0.0132,0.017,0.0188,0.0182,0.013,0.0109,0.0074,0.0034,0.0004,0.0032,-0.0008,-0.0001,-0.0013,-0.0073,-0.0065,-0.0068,-0.0009,-0.0008,-0.0007,-0.0006,0,-0.0154,-0.0149,-0.0103,-0.0016,0.0068,0.013,0.0125,0.0148,0.0186,0.0184,0.016,0.0137,0.0125,0.0047,-0.0006,-0.0038,-0.003,-0.0022,-0.0014,-0.0004,-0.0077,-0.016,-0.0105,0,0,0,0,0,-0.0137,-0.0088,-0.0035,0.005,0.0138,0.0207,0.0192,0.0162,0.0134,0.0149,0.0172,0.011,0.0067,0.0023,-0.0017,-0.007,-0.0055,-0.0125,-0.0044,-0.0061,-0.005,-0.0147,0,0,0,0,0,0,-0.0121,-0.0073,-0.0029,0.0134,0.0224,0.0317,0.0318,0.0278,0.0223,0.0187,0.0154,0.0124,0.0061,0.0146,0.0014,-0.0009,0.0032,-0.0159,-0.0161,-0.0067,-0.0057,-0.0048,-0.0144,0,0,0,0,0]}]]